Weather History for EGOM - January, 2013

Change the Weather History Date:

Thursday, January 24, 2013

  Actual Average Record
Temperature  
Mean Temperature 29 °F -  
Max Temperature 32 °F - - ()
Min Temperature 26 °F - - ()
Degree Days  
Heating Degree Days 36    
Moisture  
Dew Point 28 °F    
Average Humidity 94    
Maximum Humidity 100    
Minimum Humidity 80    
Precipitation  
Precipitation 0.00 in - - ()
Sea Level Pressure  
Sea Level Pressure 29.99 in    
Wind  
Wind Speed 4 mph ()    
Max Wind Speed 8 mph    
Max Gust Speed -    
Visibility 5.7 miles    
Events Snow    
T = Trace of Precipitation, MM = Missing Value Source: Averaged Metar Reports

Daily Weather History Graph

Daily Weather History Graph

Search for Another Location

Airport or City:

Trip Planner

Search our weather history database for the weather conditions in past years. The results will help you decide how hot, cold, wet, or windy it might be!

Date:

Astronomy

Jan. 24, 2013 Rise Set
Actual Time 8:14 AM GMT 4:30 PM GMT
Civil Twilight 7:32 AM GMT 5:12 PM GMT
Nautical Twilight 6:48 AM GMT 5:57 PM GMT
Astronomical Twilight 6:05 AM GMT 6:40 PM GMT
Moon 2:13 PM GMT (1/24) 6:08 AM GMT (1/24)
Length of Visible Light 9h 39m
Length of Day
8h 16m
Waxing Gibbous, 93% of the Moon is Illuminated
Jan 24
Waxing Gibbous
Jan 27
Full
Feb 3
Last Quarter
Feb 10
New
Feb 17
First Quarter

Hourly Weather History & Observations

Time (GMT) Temp. Windchill Dew Point Humidity Pressure Visibility Wind Dir Wind Speed Gust Speed Precip Events Conditions
12:50 AM 30.2 °F 23.4 °F 30.2 °F 100% 29.89 in 3.7 mi ENE 6.9 mph - N/A   Mostly Cloudy
1:50 AM 30.2 °F 25.4 °F 30.2 °F 100% 29.92 in 3.1 mi NNE 4.6 mph - N/A Snow Snow Grains
2:50 AM 30.2 °F 26.7 °F 30.2 °F 100% 29.92 in 5.0 mi NE 3.5 mph - N/A   Scattered Clouds
3:50 AM 30.2 °F 25.4 °F 30.2 °F 100% 29.92 in 6.2 mi NE 4.6 mph - N/A   Scattered Clouds
4:50 AM 30.2 °F 26.7 °F 30.2 °F 100% 29.95 in 6.2 mi NE 3.5 mph - N/A   Mostly Cloudy
5:50 AM 30.2 °F 26.7 °F 28.4 °F 93% 29.95 in 5.6 mi ENE 3.5 mph - N/A   Overcast
6:50 AM 28.4 °F - 28.4 °F 100% 29.98 in 5.0 mi NNW 1.2 mph - N/A   Mostly Cloudy
7:50 AM 28.4 °F - 28.4 °F 100% 29.98 in 6.2 mi ENE 2.3 mph - N/A   Mostly Cloudy
8:50 AM 28.4 °F - 28.4 °F 100% 30.01 in 5.0 mi SE 2.3 mph - N/A   Overcast
9:50 AM 28.4 °F 24.6 °F 28.4 °F 100% 30.01 in 5.0 mi NE 3.5 mph - N/A   Mostly Cloudy
10:50 AM 30.2 °F - 30.2 °F 100% 30.01 in 6.2 mi ESE 2.3 mph - N/A   Overcast
11:50 AM 30.2 °F - 30.2 °F 100% 30.01 in 6.2 mi North 2.3 mph - N/A   Overcast
12:50 PM 32.0 °F - 32.0 °F 100% 30.01 in 6.2 mi East 1.2 mph - N/A   Overcast
1:50 PM 32.0 °F - 30.2 °F 93% 30.01 in 6.2 mi NE 1.2 mph - N/A   Overcast
2:50 PM 32.0 °F - 30.2 °F 93% 30.01 in 6.2 mi SE 2.3 mph - N/A   Overcast
3:50 PM 30.2 °F 25.4 °F 26.6 °F 86% 30.04 in 6.2 mi SSE 4.6 mph - N/A   Overcast
4:50 PM 30.2 °F 23.4 °F 26.6 °F 86% 30.04 in 6.2 mi South 6.9 mph - N/A   Overcast
5:50 PM 30.2 °F 23.4 °F 26.6 °F 86% 30.04 in 6.2 mi South 6.9 mph - N/A   Overcast
6:50 PM 26.6 °F 19.1 °F 23.0 °F 86% 30.04 in 6.2 mi SSE 6.9 mph - N/A   Overcast
7:50 PM 28.4 °F 20.4 °F 24.8 °F 86% 30.01 in 6.2 mi SSE 8.1 mph - N/A   Mostly Cloudy
8:50 PM 28.4 °F - 24.8 °F 86% 30.01 in 5.0 mi North 2.3 mph - N/A   Haze
9:50 PM 30.2 °F 24.3 °F 24.8 °F 80% 30.01 in 6.2 mi South 5.8 mph - N/A   Overcast
10:50 PM 28.4 °F - 26.6 °F 93% 30.01 in 6.2 mi East 1.2 mph - N/A   Overcast
11:50 PM 30.2 °F 22.6 °F 24.8 °F 80% 29.98 in 6.2 mi South 8.1 mph - N/A   Overcast